Location: Pisa
(43.7170°N, 10.3830°E)
Time: 02:14:40
(UTC+02:00)

ISS - Pass Details

Date: 20 May 2021
Orbit: 417 x 422 km, 51.6° (Epoch: 22 June)

Event Time Altitude Azimuth Distance (km) Brightness Sun altitude
Rises 01:20:50 0° 303° (WNW) 2,370 0.5 -26.3°
Reaches altitude 10° 01:23:02 10° 312° (NW) 1,505 -0.5 -26.3°
Enters shadow 01:24:29 22° 326° (NW) 989 -1.4 -26.3°
